Showing default

DISCO-2, 68431

Orbit data source: Space-Track

DISCO-2, 68431 is a payload satellite owned by Aarhus U. (DK) in SSO that was launched on Mon, 30 Mar 2026 UTC via an FALCON 9 launch vehicle from the Air Force Western Test Range (AFWTR). Payload-class satellites include a variety of spacecraft equipped with specific instruments for various scientific and technological missions. These include communications satellites like Starlink; space stations such as the ISS; scientific satellites like the Hubble; Earth observation satellites from companies like Planet Labs, Umbra, and HawkEye 360; GPS; miniature CubeSats for education and research; and military/defense satellites.

Loading next visibility...
Identifier
68431, 2026-067R
Orbit
SSO
Country
Flag of DKDK / DEN
Related business
Manufacturer
Aarhus U.
Mission
Operational spacecraft
Bus & Motor
CUBESAT 3U, Unknown motor
Mass
~5 kg wet, ~5 kg dry
Launch date (UTC)
2026-03-30 (3 months ago)
Launch vehicle
FALCON 9
Launch site
Air Force Western Test Range (AFWTR)
Object type
Payload
Rocket body
Debris
Shape & HBR
Unknown shape, 0.1 m
Radar Cross Section
Medium (>0.1 m² and <1 m²)

Expand to show TLE details & history
Last TLE update: 2 days ago

TLE from 2 days ago
0 DISCO-2
1 68431U 26067R   26171.34440683  .00006749  00000-0  32462-3 0  9998
2 68431  97.4603 129.8842 0002500  38.3068 321.8343 15.19114251 12425
Epoch: 2026-06-20T08:15Z
TLE epoch observation values (Epoch: 2026-06-20T08:15:56.750Z)
Latitude
-0.00007°
Longitude
97.33738°
Altitude
510.25 km
Speed
7.61 km/s
True Right ascension
08h 39m 32s
True Declination
0° 00' 00"
Sunlit
Object was in daylight at epoch
Visualization orbit readout
Latitude
Unknown
Longitude
Unknown
Altitude
Unknown
Speed
Unknown
Apparent Right ascension
Unknown
Apparent Declination
Unknown
Sunlit
N/A
Visualization observer readout
Local Sidereal Time
20:07:51
Azimuth
Unknown
Elevation
Unknown
Doppler factor
Unknown
Orbital elements
Apogee altitude
507.206 km
Perigee altitude
503.765 km
Semi-major axis
6,883.623 km
Eccentricity
0.00025
Inclination
97.4603°
RAAN
129.8842°
Arg. of periapsis
38.3068°
True anomaly
321.81659°
Mean anomaly
321.8343°
Eccentric anomaly
321.82545°
Mean motion
3.8003 °/min
Orbital period
94.73 mins
BSTAR
0.00032462
Loading maneuver chart data...
Computing Atmospheric mass density...
Loading historical data...
Loading historical data...
Loading historical data...
Loading historical data...
Loading historical data...
Loading historical data...
Loading historical data...

Documentation

Showing up to 5 results
|